Flag for Ecuador Weather past 2 weeks in Quito, Ecuador

Now
54 °F

Passing clouds.


Feels Like: 54 °F
Forecast: 51 / 58 °F
Wind: No wind

Location: Latacunga Airport

Current Time: Mar 26, 2015 at 11:25:47 PM

Latest Report: Mar 26, 2015 at 10:00 PM


Visibility: N/A

Pressure: 30.45 "Hg

Humidity: 94%

Dew point: 52 °F

Location of QuitoLocation

Historic Weather in Quito — Graph

°F

Quito temperature yesterday

Maximum temperature yesterday: 66 °F (at 12:00 PM)
Minimum temperature yesterday: 52 °F (at 5:00 AM)
Average temperature yesterday: 56 °F

Past Weeks' High & Low Weather Summary

 TemperatureHumidityPressure
High70 °F (Mar 23, 1:00 PM)100% (Mar 13, 6:00 AM)30.54 "Hg (Mar 13, 6:00 AM)
Low45 °F (Mar 23, 7:00 AM)40% (Mar 23, 1:00 PM)30.24 "Hg (Mar 13, 4:00 PM)
Average56 °F85%30.41 "Hg
* Reported Mar 11 10:00 PM — Mar 26 10:00 PM, Quito, Weather by CustomWeather, © 2015

Note: Actual official high and low records may vary slightly from our data, if they occured in-between our weather recording intervals... More about our weather records

Advertising

Quito weather history for previous 24 hours

 ConditionsComfort  
Time TempWeatherWind HumidityBarometerVisibility
10:00 PM
Thu, Mar 26
54 °FPassing clouds.No wind94%30.45 "HgN/A
9:00 PM55 °FPassing clouds.3 mph88%30.42 "HgN/A
8:00 PM57 °FPartly cloudy.5 mph82%30.39 "HgN/A
7:00 PM57 °FPassing clouds.7 mph82%30.39 "HgN/A
6:00 PM59 °FBroken clouds.16 mph77%30.33 "HgN/A
5:00 PM63 °FBroken clouds.9 mph68%30.33 "HgN/A
4:00 PM64 °FBroken clouds.15 mph60%30.33 "HgN/A
3:00 PM64 °FBroken clouds.9 mph60%30.36 "HgN/A
2:00 PM64 °FBroken clouds.7 mph64%30.39 "HgN/A
1:00 PM61 °FPartly sunny.No wind77%30.42 "HgN/A
12:00 PM61 °FPartly sunny.7 mph72%30.45 "HgN/A
11:00 AMN/AN/AN/AN/A1 mi
10:00 AM57 °FPartly sunny.9 mph82%30.48 "HgN/A
9:00 AM55 °FBroken clouds.6 mph88%30.48 "HgN/A
8:00 AM52 °FBroken clouds.6 mph94%30.48 "Hg4 mi
7:00 AM52 °FSnow. More clouds than sun.6 mph94%30.45 "Hg4 mi
6:00 AM50 °FPartly cloudy.2 mph94%30.45 "HgN/A
5:00 AM50 °FPartly cloudy.2 mph94%30.45 "HgN/A
4:00 AM50 °FPartly cloudy.2 mph94%30.42 "HgN/A
3:00 AM50 °FPassing clouds.2 mph94%30.42 "HgN/A
2:00 AM50 °FPassing clouds.5 mph94%30.45 "HgN/A
1:00 AM50 °FPassing clouds.3 mph94%30.45 "HgN/A
12:00 AM52 °FPartly cloudy.5 mph94%30.48 "HgN/A
11:00 PM
Wed, Mar 25
52 °FPartly cloudy.2 mph94%30.51 "HgN/A
Weather by CustomWeather, © 2015

See weather overviewHow to use our weather pages